This is the latest recevied weather packets stored in our database for station/object KQ4WWD. If no packets are shown the sender has not sent any weather packets the latest 10 day(s).
| Time | Temp. | Humidity | Pressure | Rain* | Wind** | Luminosity | Snow |
|---|---|---|---|---|---|---|---|
| 1788453261 | 31.67° C | 79% | 1014.7 hPa | 0 mm | - | 678 W/m² | - |
| 1788452957 | 31.11° C | 81% | 1014.9 hPa | 0 mm | - | 427 W/m² | - |
| 1788452654 | 30.56° C | 81% | 1015 hPa | 0 mm | - | 368 W/m² | - |
| 1788452349 | 30.56° C | 83% | 1014.9 hPa | 0 mm | - | 233 W/m² | - |
| 1788452044 | 30.56° C | 81% | 1014.9 hPa | 0 mm | - | 267 W/m² | - |
| 1788451740 | 30.56° C | 82% | 1014.8 hPa | 0 mm | - | 286 W/m² | - |
| 1788451438 | 30.56° C | 82% | 1014.9 hPa | 0 mm | - | 340 W/m² | - |
| 1788451137 | 30.56° C | 83% | 1014.9 hPa | 0 mm | - | 321 W/m² | - |
| 1788450833 | 30° C | 84% | 1015.2 hPa | 0 mm | - | 776 W/m² | - |
| 1788450529 | 30° C | 84% | 1015.2 hPa | 0 mm | - | 369 W/m² | - |
| 1788450233 | 30° C | 84% | 1015.2 hPa | 0 mm | - | 237 W/m² | - |
| 1788449925 | 29.44° C | 85% | 1015.1 hPa | 0 mm | - | 204 W/m² | - |
| 1788449621 | 30° C | 84% | 1015.1 hPa | 0 mm | - | 221 W/m² | - |
| 1788449318 | 30° C | 84% | 1015 hPa | 0 mm | - | 178 W/m² | - |
| 1788449013 | 30° C | 84% | 1014.9 hPa | 0 mm | - | 453 W/m² | - |
| 1788448713 | 30° C | 85% | 1015 hPa | 0 mm | - | 487 W/m² | - |
| 1788448409 | 30° C | 86% | 1015.1 hPa | 0 mm | - | 324 W/m² | - |
| 1788448108 | 29.44° C | 86% | 1015 hPa | 0 mm | - | 347 W/m² | - |
| 1788447803 | 29.44° C | 87% | 1015 hPa | 0 mm | - | 701 W/m² | - |
| 1788447498 | 28.89° C | 88% | 1015.2 hPa | 0 mm | - | 884 W/m² | - |
| 1788447193 | 28.89° C | 87% | 1014.9 hPa | 0 mm | - | 541 W/m² | - |
| 1788446892 | 28.89° C | 88% | 1015.3 hPa | 1.78 mm | - | 818 W/m² | - |
| 1788446588 | 28.33° C | 90% | 1015.2 hPa | 1.78 mm | - | 910 W/m² | - |
| 1788446283 | 27.78° C | 92% | 1015.2 hPa | 0 mm | - | 567 W/m² | - |
| 1788445980 | 27.22° C | 92% | 1015.2 hPa | 0 mm | - | 313 W/m² | - |
* Rain latest hour (hover to see other rain measurements)
** Current wind speed in m/s (hover to see current wind gust speed)